Fresno, CA

12:40 AM PST on November 15, 2019 (GMT -0800)
Fresno Yosemite International

Weather History for KFAT - September, 2019

Change the Weather History Date:

Monday, September 30, 2019

  Actual Average Record
Temperature  
Mean Temperature 61 °F 72 °F  
Max Temperature 72 °F 86 °F 101 °F (2010)
Min Temperature 50 °F 58 °F 37 °F (1950)
Degree Days  
Heating Degree Days 4    
Month to date heating degree days  
Since 1 July heating degree days  
Cooling Degree Days 0    
Month to date cooling degree days  
Year to date cooling degree days  
Growing Degree Days 11 (Base 50)    
Moisture  
Dew Point 39 °F    
Average Humidity 45    
Maximum Humidity 74    
Minimum Humidity 17    
Precipitation  
Precipitation 0.00 in 0.01 in 0.73 in (1894)
Month to date precipitation 0.17  
Year to date precipitation 8.03  
Snow  
Snow 0.00 in - - ()
Month to date snowfall  
Since 1 July snowfall  
Since 1 September snowfall  
Snow Depth -    
Sea Level Pressure  
Sea Level Pressure 29.93 in    
Wind  
Wind Speed 9 mph (NW)    
Max Wind Speed 16 mph    
Max Gust Speed 16 mph    
Visibility 10 miles    
Events      
T = Trace of Precipitation, MM = Missing Value Source: NWS Daily Summary

Daily Weather History Graph

Daily Weather History Graph

Search for Another Location

Airport or City:

Astronomy

Sep. 30, 2019 Rise Set
Actual Time 6:53 AM PDT 6:43 PM PDT
Civil Twilight 6:27 AM PDT 7:09 PM PDT
Nautical Twilight 5:57 AM PDT 7:39 PM PDT
Astronomical Twilight 5:27 AM PDT 8:09 PM PDT
Moon 9:00 AM PDT (9/30) 8:25 PM PDT (9/30)
Length of Visible Light 12h 42m
Length of Day
11h 50m
Waxing Crescent, 6% of the Moon is Illuminated
Sep 30
Waxing Crescent
Oct 5
First Quarter
Oct 13
Full
Oct 21
Last Quarter
Oct 27
New

Hourly Weather History & Observations

Time (PDT) Temp. Dew Point Humidity Pressure Visibility Wind Dir Wind Speed Gust Speed Precip Events Conditions
12:53 AM 57.9 °F 42.1 °F 56% 29.91 in 10.0 mi NW 10.4 mph - N/A   Scattered Clouds
1:53 AM 55.9 °F 43.0 °F 62% 29.92 in 10.0 mi WNW 10.4 mph - N/A   Clear
2:53 AM 55.0 °F 42.1 °F 62% 29.92 in 10.0 mi NNW 9.2 mph - N/A   Clear
3:53 AM 53.1 °F 42.1 °F 66% 29.92 in 10.0 mi NNW 5.8 mph - N/A   Clear
4:53 AM 52.0 °F 42.1 °F 69% 29.93 in 10.0 mi NNW 6.9 mph - N/A   Partly Cloudy
5:53 AM 51.1 °F 43.0 °F 74% 29.94 in 10.0 mi NNW 5.8 mph - N/A   Partly Cloudy
6:53 AM 51.1 °F 43.0 °F 74% 29.96 in 10.0 mi NNW 5.8 mph - N/A   Scattered Clouds
7:53 AM 53.1 °F 43.0 °F 69% 29.96 in 10.0 mi NW 6.9 mph - N/A   Partly Cloudy
8:53 AM 57.0 °F 44.1 °F 62% 29.97 in 10.0 mi NW 9.2 mph - N/A   Clear
9:53 AM 60.1 °F 43.0 °F 53% 29.98 in 10.0 mi WNW 8.1 mph - N/A   Clear
10:53 AM 64.0 °F 43.0 °F 46% 29.98 in 10.0 mi NW 9.2 mph - N/A   Clear
11:53 AM 66.9 °F 39.0 °F 36% 29.97 in 10.0 mi WNW 8.1 mph - N/A   Partly Cloudy
12:53 PM 68.0 °F 39.0 °F 35% 29.96 in 10.0 mi WNW 9.2 mph 16.1 mph N/A   Scattered Clouds
1:53 PM 71.1 °F 37.0 °F 29% 29.94 in 10.0 mi West 6.9 mph - N/A   Scattered Clouds
2:53 PM 69.1 °F 37.9 °F 32% 29.92 in 10.0 mi WNW 13.8 mph - N/A   Partly Cloudy
3:53 PM 72.0 °F 37.0 °F 28% 29.90 in 10.0 mi West 10.4 mph - N/A   Partly Cloudy
4:53 PM 71.1 °F 36.0 °F 28% 29.89 in 10.0 mi WNW 11.5 mph - N/A   Partly Cloudy
5:53 PM 70.0 °F 36.0 °F 29% 29.89 in 10.0 mi WNW 13.8 mph - N/A   Partly Cloudy
6:53 PM 68.0 °F 34.0 °F 28% 29.89 in 10.0 mi NW 12.7 mph - N/A   Partly Cloudy
7:53 PM 64.9 °F 34.0 °F 32% 29.90 in 10.0 mi NW 13.8 mph - N/A   Clear
8:53 PM 63.0 °F 34.0 °F 34% 29.90 in 10.0 mi NW 16.1 mph - N/A   Clear
9:53 PM 61.0 °F 32.0 °F 34% 29.91 in 10.0 mi NW 15.0 mph - N/A   Clear
10:53 PM 60.1 °F 32.0 °F 35% 29.91 in 10.0 mi NW 10.4 mph - N/A   Clear
11:53 PM 57.0 °F 35.1 °F 44% 29.91 in 10.0 mi NW 9.2 mph - N/A   Clear